[[{"header":{"parameterUnit":"m.s-1","parameterCategory":1,"la1":30.2991,"la2":30.254,"lo1":-89.0895,"lo2":-89.0444,"dy":0.0017,"dx":0.0017,"nx":28,"ny":28,"refTime":"2024-08-17T09:00:00:Z","depth":0,"parameterNumber":2,"parameterNumberName":"U-component_of_WINDS"},"data":[0,0,0,0,0,0,0,0,0,0,0,0,0,0,0,0,0,0,0,0,0,0,0,0,0,0,0,0,0,0,0,0,0,0,0,0,0,0,0,0,0,0,0,0,0,0,0,0,0,0,0,0,0,0,0,0,0,0,0.2156,0.2157,0,0.2219,0.2219,0.222,0.2247,0.2247,0.2246,0.2246,0.231,0.2312,0.2314,0,0,0,0,0,0,0,0,0,0,0,0,0,0.2058,0.206,0.2156,0.2157,0.2158,0.2219,0.2219,0.222,0.2247,0.2247,0.2246,0.2246,0.231,0.2312,0.2314,0,0,0,0,0,0,0,0,0,0,0,0,0,0.2108,0.206,0.2156,0.2178,0.2181,0.2218,0.2219,0.222,0.2247,0.2247,0.2246,0.2246,0.2309,0.2312,0.2314,0.2335,0,0,0.2323,0.2324,0,0,0,0,0,0,0,0,0.2106,0.2112,0.2174,0.2177,0.218,0.2225,0.2208,0.2259,0.2247,0.2222,0.2246,0.2246,0.2282,0.2287,0.2299,0.2338,0.234,0.2323,0.2325,0.2326,0.2327,0,0,0,0,0,0,0,0.2102,0.211,0.2181,0.2175,0.2178,0.2184,0.2191,0.2218,0.2252,0.2224,0.2226,0.2233,0.2284,0.2296,0.2301,0.2341,0.2323,0.2325,0.2327,0.2328,0.2398,0.2399,0,0,0,0,0,0,0.2095,0.2106,0.2179,0.2183,0.2141,0.2186,0.2194,0.221,0.2252,0.2258,0.2233,0.2234,0.2292,0.2298,0.2303,0.2329,0.2326,0.2328,0.233,0.2398,0.2398,0.2399,0,0,0,0,0,0,0.2093,0.2101,0.2176,0.2145,0.2155,0.2188,0.2206,0.2212,0.2225,0.2259,0.2265,0.224,0.2292,0.2299,0.2326,0.2332,0.233,0.2332,0.2398,0.2398,0.2398,0.2381,0,0,0,0,0,0,0.209,0.21,0.2109,0.2145,0.2157,0.2199,0.2207,0.2213,0.2229,0.2231,0.2267,0.2273,0.2292,0.2322,0.2329,0.2335,0.2334,0.2397,0.2398,0.2398,0.2381,0.238,0.238,0,0,0,0,0,0.2086,0.2101,0.2109,0.2118,0.2168,0.2199,0.2206,0.2228,0.223,0.2238,0.226,0.2272,0.233,0.2325,0.2333,0.234,0.2397,0.2398,0.2398,0.2381,0.2381,0.238,0,0,0,0,0,0,0.2065,0.2107,0.2116,0.2143,0.2167,0.2203,0.2215,0.2227,0.2251,0.2252,0.2278,0.2286,0.231,0.2328,0.2321,0.2361,0.2364,0.2367,0.2349,0.2348,0.2348,0.2343,0.2336,0,0,0,0,0,0.2063,0.2085,0.2121,0.2141,0.2153,0.2182,0.2196,0.2211,0.2237,0.2248,0.2271,0.2296,0.232,0.2335,0.2359,0.2383,0.2391,0.2392,0.2392,0.2391,0.2393,0.2406,0.2407,0.24,0.24,0.24,0,0,0.206,0.2086,0.2098,0.2138,0.2158,0.218,0.219,0.2213,0.2229,0.2251,0.2278,0.2296,0.2325,0.2351,0.2363,0.2366,0.2396,0.2392,0.2391,0.2393,0.2407,0.2407,0.2408,0.2401,0.2401,0.2401,0,0,0.2066,0.2088,0.2107,0.2127,0.2158,0.2177,0.2181,0.2216,0.2229,0.2256,0.2272,0.2292,0.2332,0.2352,0.2368,0.2379,0.2391,0.2386,0.2384,0.2396,0.2397,0.2397,0.2401,0.2402,0.2388,0.2388,0.2388,0,0.2059,0.2093,0.2116,0.2137,0.2154,0.2174,0.2193,0.2212,0.2249,0.2259,0.2262,0.2312,0.2333,0.2364,0.2366,0.2378,0.2384,0.2383,0.2395,0.2396,0.2397,0.24,0.2402,0.2387,0.2387,0.2387,0.2387,0,0.2081,0.2104,0.2116,0.2151,0.2169,0.2189,0.2215,0.223,0.2243,0.2261,0.2288,0.2314,0.2343,0.2351,0.2364,0.2382,0.2383,0.239,0.2394,0.2396,0.24,0.2402,0.2386,0.2386,0.2386,0.2386,0,0,0.2076,0.2123,0.2127,0.2143,0.2178,0.2196,0.2216,0.2244,0.2256,0.2281,0.2298,0.2332,0.2338,0.2355,0.237,0.2381,0.2388,0.2387,0.2388,0.2386,0.2409,0.2404,0.2405,0.2396,0.2396,0.2396,0.2407,0,0.2087,0.2125,0.2146,0.2176,0.2197,0.2216,0.2234,0.2256,0.2274,0.2294,0.2313,0.2335,0.2342,0.2352,0.2364,0.2385,0.2393,0.2384,0.2412,0.2413,0.2404,0.2408,0.2403,0.2411,0.2408,0.2409,0.2409,0,0.2104,0.2128,0.216,0.2191,0.2201,0.2217,0.2244,0.2263,0.2288,0.23,0.2319,0.2334,0.2355,0.2357,0.2387,0.2381,0.2393,0.2405,0.2406,0.2409,0.2411,0.2411,0.2414,0.2416,0.2412,0.2411,0.2411,0,0.2097,0.2137,0.2161,0.2174,0.2211,0.2222,0.2238,0.2263,0.2279,0.2302,0.2312,0.2337,0.2351,0.237,0.2391,0.2391,0.2419,0.2423,0.2429,0.2428,0.2434,0.2434,0.2439,0.2442,0.2442,0.2442,0.2442,0,0.2106,0.2125,0.2158,0.2173,0.2193,0.2217,0.2237,0.2254,0.2277,0.2294,0.2312,0.2328,0.2355,0.2374,0.2391,0.2413,0.2419,0.2429,0.2433,0.2427,0.2426,0.2436,0.2436,0.2442,0.2442,0.2442,0.2442,0,0.2102,0.2125,0.2152,0.2185,0.2194,0.2208,0.2236,0.225,0.2268,0.229,0.2297,0.2324,0.2348,0.237,0.2402,0.2413,0.2435,0.244,0.2426,0.2429,0.2433,0.2432,0.2446,0.2448,0.2449,0.2449,0.2449,0,0.2107,0.2121,0.2156,0.2169,0.2185,0.2206,0.2221,0.2244,0.2259,0.2289,0.23,0.2325,0.2346,0.2383,0.2405,0.2429,0.2435,0.2438,0.2439,0.2433,0.2435,0.2434,0.2435,0.2438,0.2438,0.2438,0.2438,0,0.2112,0.2123,0.2144,0.217,0.2188,0.2209,0.2231,0.224,0.2267,0.2283,0.2307,0.2324,0.2356,0.238,0.2406,0.2422,0.2434,0.2437,0.244,0.2434,0.2425,0.243,0.2425,0.2437,0.2437,0.2437,0.2437,0.2437,0.2112,0.2126,0.2152,0.2176,0.2194,0.2214,0.2229,0.2248,0.2269,0.2297,0.2309,0.2333,0.2357,0.2394,0.2409,0.2428,0.2431,0.2435,0.2436,0.2437,0.2435,0.2422,0.2433,0.2433,0.2433,0.2433,0.2433,0,0.2119,0.2136,0.2157,0.2187,0.2205,0.2215,0.2239,0.2253,0.2274,0.2296,0.2316,0.2344,0.2367,0.2391,0.2415,0.2426,0.2432,0.2431,0.2431,0.2434,0.2432,0.2427,0.2426,0.2426,0.2426,0.2426,0.2426,0.2426,0.2124,0.2147,0.2161,0.2193,0.221,0.2234,0.2247,0.2265,0.2282,0.2312,0.2331,0.2347,0.2369,0.2395,0.2416,0.2423,0.2431,0.2429,0.2437,0.2434,0.2434,0.2435,0.243,0.243,0.243,0.2438,0.2438,0.2438]},{"header":{"parameterUnit":"m.s-1","parameterCategory":1,"la1":30.2991,"la2":30.254,"lo1":-89.0895,"lo2":-89.0444,"dy":0.0017,"dx":0.0017,"nx":28,"ny":28,"refTime":"2024-08-17T09:00:00:Z","depth":0,"parameterNumber":3,"parameterNumberName":"V-component_of_WINDS"},"data":[0,0,0,0,0,0,0,0,0,0,0,0,0,0,0,0,0,0,0,0,0,0,0,0,0,0,0,0,0,0,0,0,0,0,0,0,0,0,0,0,0,0,0,0,0,0,0,0,0,0,0,0,0,0,0,0,0,0,4.5376,4.5376,0,4.5301,4.53,4.5299,4.5279,4.5279,4.5279,4.528,4.5194,4.5191,4.5188,0,0,0,0,0,0,0,0,0,0,0,0,0,4.5494,4.5492,4.5376,4.5375,4.5375,4.5301,4.53,4.5299,4.5278,4.5279,4.528,4.528,4.5194,4.5191,4.5188,0,0,0,0,0,0,0,0,0,0,0,0,0,4.5433,4.5491,4.5377,4.5356,4.5353,4.5301,4.53,4.5299,4.5278,4.5279,4.528,4.528,4.5196,4.5192,4.5188,4.5149,0,0,4.5175,4.5173,0,0,0,0,0,0,0,0,4.5437,4.5429,4.536,4.5357,4.5354,4.53,4.531,4.5248,4.5278,4.5306,4.528,4.5281,4.5228,4.5221,4.5205,4.5145,4.5141,4.5175,4.5172,4.517,4.5169,0,0,0,0,0,0,0,4.5441,4.5432,4.5346,4.5359,4.5355,4.5347,4.5339,4.5298,4.5264,4.5304,4.5302,4.5294,4.5226,4.5209,4.5203,4.514,4.5175,4.5171,4.5169,4.5167,4.5042,4.5042,0,0,0,0,0,0,4.545,4.5435,4.5349,4.5344,4.5398,4.5345,4.5336,4.5317,4.5264,4.5257,4.5294,4.5294,4.5216,4.5208,4.52,4.515,4.5171,4.5167,4.5164,4.5043,4.5042,4.5041,0,0,0,0,0,0,4.5452,4.5442,4.5352,4.5389,4.5377,4.5342,4.532,4.5315,4.5298,4.5257,4.525,4.5283,4.5216,4.5206,4.5162,4.5147,4.5165,4.5161,4.5044,4.5043,4.5042,4.5052,0,0,0,0,0,0,4.5456,4.5443,4.543,4.5389,4.5375,4.5318,4.532,4.5313,4.5292,4.5291,4.5245,4.5238,4.5216,4.5168,4.5158,4.5142,4.5158,4.5045,4.5044,4.5042,4.5052,4.5051,4.5049,0,0,0,0,0,4.546,4.5434,4.543,4.5419,4.5359,4.5317,4.5309,4.5287,4.5291,4.5276,4.525,4.5239,4.5151,4.5164,4.5152,4.5135,4.5046,4.5044,4.5042,4.5053,4.5051,4.505,0,0,0,0,0,0,4.547,4.5428,4.5423,4.5383,4.5354,4.5314,4.5294,4.5285,4.5252,4.5252,4.5223,4.5213,4.5171,4.5148,4.5164,4.5094,4.5098,4.5094,4.511,4.5108,4.5107,4.5112,4.5155,0,0,0,0,0,4.5469,4.5441,4.5405,4.5373,4.5359,4.5329,4.531,4.5296,4.5264,4.525,4.5221,4.5187,4.5152,4.5129,4.5094,4.505,4.5038,4.5031,4.503,4.5029,4.5025,4.4999,4.4995,4.5035,4.5035,4.5035,0,0,4.5463,4.5437,4.5421,4.5374,4.535,4.532,4.5319,4.5287,4.5263,4.5244,4.5202,4.5179,4.514,4.5096,4.5075,4.5075,4.5012,4.5027,4.5026,4.5022,4.4996,4.4993,4.4989,4.5034,4.5034,4.5034,0,0,4.5438,4.5417,4.5388,4.5365,4.5329,4.531,4.5303,4.5264,4.5249,4.5207,4.5193,4.5163,4.5103,4.5075,4.5053,4.5019,4.5008,4.5009,4.5,4.4975,4.4972,4.4969,4.4955,4.4951,4.5005,4.5005,4.5005,0,4.5435,4.5392,4.5373,4.5343,4.5322,4.5307,4.5277,4.5254,4.5207,4.5192,4.5195,4.512,4.5092,4.5041,4.5033,4.5016,4.5005,4.5013,4.4974,4.4971,4.4968,4.4955,4.495,4.5005,4.5005,4.5005,4.5005,0,4.539,4.536,4.534,4.53,4.5277,4.5246,4.522,4.5199,4.5187,4.5167,4.5123,4.509,4.5048,4.5035,4.5022,4.4982,4.4984,4.4981,4.4984,4.4965,4.4952,4.4947,4.5006,4.5005,4.5005,4.5005,0,0,4.5367,4.5319,4.5312,4.5293,4.5254,4.5229,4.5197,4.5159,4.5141,4.5109,4.508,4.5031,4.5028,4.5003,4.4987,4.4965,4.4939,4.4965,4.4963,4.496,4.4892,4.4893,4.4888,4.4933,4.4931,4.4931,4.4895,0,4.5336,4.5282,4.5265,4.5218,4.5189,4.5175,4.5147,4.5118,4.5099,4.5069,4.5046,4.5011,4.5011,4.4996,4.4974,4.4947,4.4925,4.495,4.4902,4.4901,4.4912,4.4881,4.4883,4.485,4.4889,4.4889,4.4888,0,4.5293,4.5265,4.5216,4.5181,4.5168,4.5144,4.5108,4.5081,4.5047,4.5034,4.5008,4.4993,4.4957,4.4964,4.4912,4.4929,4.4908,4.4892,4.4891,4.4884,4.4892,4.4872,4.4839,4.4834,4.488,4.4881,4.4881,0,4.528,4.523,4.5194,4.5179,4.5137,4.512,4.5101,4.5069,4.5048,4.5015,4.5001,4.4964,4.4943,4.4913,4.4888,4.4896,4.4838,4.4843,4.4823,4.4824,4.481,4.4811,4.4772,4.48,4.48,4.48,4.48,0,4.5247,4.5217,4.5188,4.5166,4.5132,4.5112,4.5077,4.5057,4.5029,4.5001,4.4986,4.4959,4.4929,4.4897,4.4877,4.4836,4.4827,4.4813,4.4808,4.4814,4.4816,4.4799,4.48,4.4799,4.4799,4.4799,4.4799,0,4.5226,4.5206,4.5166,4.5131,4.5122,4.5098,4.5066,4.5043,4.5024,4.4988,4.4978,4.4946,4.4909,4.4882,4.4832,4.4819,4.4774,4.477,4.4787,4.4784,4.4766,4.4767,4.4713,4.4704,4.4739,4.4739,4.4739,0,4.5205,4.5183,4.5147,4.5128,4.5111,4.5081,4.506,4.5039,4.5017,4.4978,4.4959,4.4921,4.4889,4.4829,4.48,4.4761,4.4755,4.4739,4.4748,4.4755,4.4753,4.4754,4.4751,4.4736,4.4736,4.4736,4.4736,0,4.517,4.5162,4.5134,4.5103,4.5079,4.5052,4.5025,4.501,4.4983,4.4959,4.4923,4.4898,4.485,4.4811,4.4771,4.4748,4.4736,4.4733,4.4727,4.4731,4.4742,4.4735,4.4781,4.4734,4.4734,4.4734,4.4734,4.4734,4.5148,4.5127,4.5099,4.5068,4.5047,4.5022,4.4999,4.4978,4.4948,4.4908,4.4897,4.4858,4.4824,4.4769,4.4746,4.4714,4.4714,4.4705,4.4702,4.47,4.4699,4.4749,4.4706,4.4706,4.4706,4.4706,4.4706,0,4.5111,4.5093,4.5065,4.503,4.5005,4.5001,4.497,4.4949,4.4916,4.4888,4.4858,4.4815,4.4778,4.4747,4.4708,4.4688,4.4681,4.4678,4.4678,4.4673,4.4702,4.4711,4.4684,4.4684,4.4684,4.4684,4.4684,4.4684,4.5089,4.5054,4.5043,4.4996,4.4977,4.4941,4.4924,4.4901,4.4878,4.4832,4.4803,4.4784,4.4753,4.4712,4.4677,4.4669,4.4654,4.4652,4.4642,4.4669,4.4671,4.4673,4.4682,4.4649,4.4649,4.4616,4.4615,4.4615]}]]